Weather History for Ravenna, OH

Change the Weather History Date:

Monday, March 18, 2013

  Actual Average (KCAK) Record (KCAK)
Temperature  
Mean Temperature 34 °F 38 °F  
Max Temperature 42 °F 47 °F 75 °F (2012)
Min Temperature 25 °F 29 °F 3 °F (1916)
Degree Days  
Heating Degree Days 32 27  
Month to date heating degree days 537  
Since 1 July heating degree days 5081  
Cooling Degree Days 0 0  
Month to date cooling degree days 0  
Year to date cooling degree days 0  
Moisture  
Dew Point 30 °F    
Average Humidity 90    
Maximum Humidity 100    
Minimum Humidity 69    
Precipitation  
Precipitation 0.39 in 0.10 in 0.99 in (1977)
Month to date precipitation 1.62  
Year to date precipitation 6.54  
Snow  
Snow 0.00 in 0.20 in - ()
Month to date snowfall 5.5  
Since 1 July snowfall 42.0  
Snow Depth -    
Sea Level Pressure  
Sea Level Pressure 29.83 in    
Wind  
Wind Speed 11 mph (ESE)    
Max Wind Speed 16 mph    
Max Gust Speed 24 mph    
Visibility 6 miles    
Events Rain , Snow    
T = Trace of Precipitation, MM = Missing Value Source: NWS Daily Summary

Daily Weather History Graph

Daily Weather History Graph

Search for Another Location

Airport:

Trip Planner

Search our weather history database for the weather conditions in past years. The results will help you decide how hot, cold, wet, or windy it might be!

Date:

Astronomy

Mar. 18, 2013 Rise Set
Actual Time 7:31 AM EDT 7:35 PM EDT
Civil Twilight 7:03 AM EDT 8:02 PM EDT
Nautical Twilight 6:31 AM EDT 8:34 PM EDT
Astronomical Twilight 5:59 AM EDT 9:07 PM EDT
Moon 11:26 AM EDT (3/18) 1:36 AM EDT (3/18)
Length of Visible Light 12h 58m
Length of Day
12h 03m
Waxing Crescent, 40% of the Moon is Illuminated
Mar 18
Waxing Crescent
Mar 19
First Quarter
Mar 27
Full
Apr 3
Last Quarter
Apr 10
New

Hourly Weather History & Observations

Time (EDT) Temp. Windchill Dew Point Humidity Pressure Visibility Wind Dir Wind Speed Gust Speed Precip Events Conditions
12:16 AM 25.7 °F 15.7 °F 18.3 °F 74% 30.14 in 10.0 mi ENE 10.4 mph 16.1 mph N/A   Clear
12:36 AM 25.7 °F 14.0 °F 18.3 °F 74% 30.12 in 10.0 mi ENE 13.8 mph - N/A   Clear
12:56 AM 25.5 °F 14.3 °F 18.5 °F 75% 30.12 in 10.0 mi East 12.7 mph - N/A   Clear
1:16 AM 25.5 °F 14.9 °F 18.5 °F 75% 30.12 in 10.0 mi East 11.5 mph - N/A   Clear
1:36 AM 25.7 °F 15.1 °F 18.5 °F 74% 30.10 in 10.0 mi East 11.5 mph - N/A   Clear
1:56 AM 25.7 °F 14.6 °F 18.5 °F 74% 30.10 in 10.0 mi East 12.7 mph - N/A   Clear
2:16 AM 25.7 °F 15.1 °F 18.5 °F 74% 30.10 in 10.0 mi East 11.5 mph - N/A   Clear
2:36 AM 25.7 °F 15.7 °F 18.5 °F 74% 30.10 in 10.0 mi East 10.4 mph - N/A   Clear
2:56 AM 26.1 °F 15.6 °F 18.9 °F 74% 30.09 in 10.0 mi East 11.5 mph - N/A   Clear
3:16 AM 26.1 °F 16.8 °F 19.0 °F 75% 30.08 in 10.0 mi East 9.2 mph - N/A   Clear
3:36 AM 26.4 °F 16.0 °F 19.2 °F 74% 30.08 in 10.0 mi East 11.5 mph - N/A   Clear
3:56 AM 26.6 °F 15.7 °F 19.0 °F 73% 30.07 in 10.0 mi East 12.7 mph - N/A   Clear
4:16 AM 27.0 °F 15.6 °F 19.4 °F 73% 30.05 in 10.0 mi East 13.8 mph - N/A   Clear
4:36 AM 27.3 °F 16.6 °F 19.9 °F 74% 30.03 in 10.0 mi East 12.7 mph - N/A   Clear
4:56 AM 27.7 °F 17.6 °F 20.3 °F 74% 30.01 in 10.0 mi East 11.5 mph - N/A   Clear
5:16 AM 28.0 °F 18.1 °F 20.5 °F 73% 30.00 in 10.0 mi East 11.5 mph - N/A   Mostly Cloudy
5:36 AM 28.6 °F 19.3 °F 21.0 °F 73% 29.99 in 10.0 mi East 10.4 mph 17.3 mph N/A   Overcast
5:56 AM 29.3 °F 19.6 °F 21.2 °F 72% 29.98 in 10.0 mi East 11.5 mph - N/A   Overcast
6:16 AM 30.2 °F 20.2 °F 21.6 °F 70% 29.98 in 10.0 mi East 12.7 mph 19.6 mph N/A   Overcast
6:36 AM 30.7 °F 20.4 °F 21.7 °F 69% 29.96 in 10.0 mi East 13.8 mph 18.4 mph N/A   Overcast
6:56 AM 31.1 °F 21.4 °F 21.9 °F 69% 29.96 in 10.0 mi ESE 12.7 mph - N/A   Overcast
7:16 AM 31.5 °F 21.8 °F 23.2 °F 71% 29.95 in 10.0 mi ESE 12.7 mph 20.7 mph N/A Snow Light Snow
7:36 AM 31.1 °F 20.9 °F 25.3 °F 79% 29.94 in 10.0 mi ESE 13.8 mph 19.6 mph N/A Rain Light Freezing Rain
7:56 AM 31.5 °F 20.5 °F 26.8 °F 83% 29.92 in 10.0 mi East 16.1 mph 19.6 mph N/A Rain Light Freezing Rain
8:16 AM 31.5 °F 21.4 °F 28.0 °F 87% 29.91 in 7.0 mi ESE 13.8 mph 23.0 mph N/A Rain Light Freezing Rain
8:36 AM 31.6 °F 22.1 °F 29.1 °F 90% 29.90 in 10.0 mi ESE 12.7 mph 18.4 mph N/A Snow Light Snow
8:55 AM 32.0 °F 21.2 °F 30.9 °F 96% 29.88 in 10.0 mi East 16.1 mph 23.0 mph N/A Rain Light Rain
9:16 AM 32.2 °F 23.2 °F 32.2 °F 100% 29.88 in 7.0 mi ESE 11.5 mph 17.3 mph N/A Rain Light Rain
9:36 AM 32.4 °F 22.5 °F 32.5 °F 100% 29.87 in 7.0 mi ESE 13.8 mph 23.0 mph N/A Rain Light Rain
9:56 AM 32.4 °F 23.0 °F 32.5 °F 100% 29.86 in 3.0 mi ESE 12.7 mph 18.4 mph 0.01 in Rain Rain
10:16 AM 32.4 °F 23.0 °F 32.5 °F 100% 29.85 in 3.0 mi ESE 12.7 mph - 0.04 in Rain Rain
10:36 AM 32.4 °F 22.1 °F 32.5 °F 100% 29.83 in 3.0 mi ESE 15.0 mph 19.6 mph 0.10 in Rain Rain
10:56 AM 32.4 °F 23.5 °F 32.5 °F 100% 29.83 in 5.0 mi East 11.5 mph 19.6 mph 0.14 in Rain Light Rain
11:16 AM 32.4 °F 23.5 °F 32.5 °F 100% 29.82 in 7.0 mi East 11.5 mph 19.6 mph 0.02 in Rain Light Rain
11:36 AM 32.4 °F 24.6 °F 32.5 °F 100% 29.83 in 10.0 mi ESE 9.2 mph 17.3 mph 0.02 in Rain Light Rain
11:55 AM 32.4 °F 24.0 °F 32.5 °F 100% 29.83 in 5.0 mi ESE 10.4 mph - 0.04 in Rain Light Rain
12:16 PM 32.4 °F 24.6 °F 32.5 °F 100% 29.82 in 4.0 mi ESE 9.2 mph - N/A Rain Rain
12:36 PM 32.4 °F 24.6 °F 32.5 °F 100% 29.80 in 2.0 mi ESE 9.2 mph - N/A Rain Light Rain
12:55 PM 32.4 °F 24.0 °F 32.5 °F 100% 29.80 in 2.0 mi ESE 10.4 mph - 0.02 in Rain Light Rain
1:16 PM 32.4 °F 25.3 °F 32.5 °F 100% 29.79 in 3.0 mi ESE 8.1 mph - N/A   Overcast
1:36 PM 32.4 °F 24.6 °F 32.5 °F 100% 29.77 in 2.5 mi ESE 9.2 mph - 0.01 in Rain Light Rain
1:56 PM 32.5 °F 24.8 °F 32.5 °F 100% 29.77 in 3.0 mi ESE 9.2 mph - 0.02 in   Overcast
2:16 PM - - - N/A% 29.75 in 4.0 mi ESE 9.2 mph - N/A   Overcast
2:36 PM 32.9 °F 25.9 °F 32.9 °F 100% 29.73 in 3.0 mi ESE 8.1 mph - 0.02 in   Overcast
2:56 PM 32.9 °F 26.7 °F 32.9 °F 100% 29.73 in 3.0 mi ESE 6.9 mph - 0.02 in   Overcast
3:16 PM 33.1 °F 26.1 °F 33.1 °F 100% 29.70 in 1.8 mi ESE 8.1 mph - N/A   Overcast
3:36 PM 33.3 °F 25.7 °F 33.3 °F 100% 29.69 in 1.8 mi ESE 9.2 mph - 0.02 in Rain Light Rain
3:56 PM 33.4 °F 26.6 °F 33.8 °F 100% 29.68 in 2.0 mi ESE 8.1 mph - 0.04 in Rain Light Rain
4:16 PM 33.8 °F 25.3 °F 34.0 °F 100% 29.66 in 2.0 mi ESE 11.5 mph - N/A Rain Light Rain
4:36 PM - - - N/A% 29.66 in 3.0 mi ESE 11.5 mph 17.3 mph N/A Rain Light Rain
4:56 PM 34.9 °F 25.7 °F 35.1 °F 100% 29.65 in 5.0 mi ESE 13.8 mph 20.7 mph N/A Rain Light Rain
5:16 PM 35.2 °F 27.1 °F 35.6 °F 100% 29.64 in 2.5 mi ESE 11.5 mph 21.9 mph 0.03 in Rain Light Rain
5:36 PM 35.6 °F 27.5 °F 35.8 °F 100% 29.63 in 3.0 mi ESE 11.5 mph 19.6 mph 0.03 in   Drizzle
5:55 PM 36.0 °F 29.0 °F 36.1 °F 100% 29.63 in 4.0 mi ESE 9.2 mph 17.3 mph 0.03 in   Overcast
6:16 PM 36.1 °F 29.9 °F 36.3 °F 100% 29.63 in 2.0 mi ESE 8.1 mph 17.3 mph N/A   Overcast
6:36 PM 36.7 °F 30.5 °F 36.9 °F 100% 29.61 in 2.5 mi SE 8.1 mph - N/A Rain Light Rain
6:55 PM 37.2 °F 31.2 °F 37.4 °F 100% 29.61 in 2.5 mi SE 8.1 mph - N/A   Overcast
7:16 PM 37.6 °F 31.6 °F 37.8 °F 100% 29.61 in 1.5 mi SE 8.1 mph - N/A Rain Light Rain
7:36 PM 37.9 °F 32.7 °F 38.1 °F 100% 29.61 in 3.0 mi SE 6.9 mph - N/A Rain Light Rain
7:56 PM 38.5 °F 33.4 °F 38.7 °F 100% 29.63 in 3.0 mi SE 6.9 mph - 0.01 in   Heavy Drizzle
8:16 PM 38.7 °F 33.6 °F 38.8 °F 100% 29.62 in 4.0 mi SE 6.9 mph - N/A   Drizzle
8:36 PM 39.2 °F 34.2 °F 39.4 °F 100% 29.63 in 4.0 mi SE 6.9 mph - 0.01 in   Drizzle
8:56 PM 39.2 °F 35.0 °F 39.4 °F 100% 29.63 in 3.0 mi SE 5.8 mph - 0.02 in   Heavy Drizzle
9:16 PM 39.4 °F 36.1 °F 39.6 °F 100% 29.62 in 3.0 mi SSE 4.6 mph - N/A   Drizzle
9:36 PM 39.6 °F 35.4 °F 39.7 °F 100% 29.63 in 3.0 mi SE 5.8 mph - N/A   Drizzle
9:56 PM - - - N/A% 29.62 in 3.0 mi SE 4.6 mph - 0.01 in   Heavy Drizzle
10:16 PM 40.1 °F 36.9 °F 40.1 °F 100% 29.62 in 2.5 mi SE 4.6 mph - N/A   Heavy Drizzle
10:36 PM 40.3 °F 37.1 °F 40.5 °F 100% 29.62 in 2.0 mi SSE 4.6 mph - 0.01 in   Drizzle
10:56 PM 41.4 °F 36.8 °F 41.5 °F 100% 29.63 in 2.5 mi WSW 6.9 mph - 0.02 in   Heavy Drizzle
11:16 PM 42.8 °F 35.8 °F 43.0 °F 100% 29.64 in 5.0 mi West 13.8 mph 23.0 mph 0.01 in   Drizzle
11:56 PM 41.9 °F 34.3 °F 42.1 °F 100% 29.66 in 10.0 mi West 15.0 mph 24.2 mph 0.01 in   Overcast